{"data":{"norad_id":69228,"intl_designator":"2026-115T","name":"STARLINK-37618","alt_names":[],"object_type":"PAYLOAD","status":"ACTIVE","operator":null,"country":"US","launch_date":"2026-05-26","launch_site_code":"AFWTR","launch_vehicle":null,"mission":null,"orbit_class":"UNKNOWN","rcs_meters":null,"size_class":null,"mass_kg":null,"dimensions":null,"purposes":["comms"],"wikipedia_slug":null,"has_3d_model":false,"image_url":null,"decayed_at":null,"tle_current":{"epoch":"2026-09-19T23:31:51.332736Z","epoch_age_seconds":71914,"freshness":"FRESH","line1":"1 69228U 26115T   26262.98045524  .00017048  00000+0  52905-3 0  9990","line2":"2 69228  97.2840 279.1253 0000387 109.0268 251.1017 15.33454142 19214","mean_motion":15.33454142,"eccentricity":3.87e-5,"inclination_deg":97.284,"raan_deg":279.1253,"arg_perigee_deg":109.0268,"mean_anomaly_deg":251.1017,"bstar":0.00052905,"rev_number":1921,"period_min":93.90564481582,"perigee_km":465.2511250831,"apogee_km":465.78082382332,"semimajor_km":6843.6529744532,"source":"CELESTRAK","updated_at":"2026-09-20T09:00:44.105270Z"}}}